Location: Unnamed
(23.5608°S, 46.6833°W)
Time: 13:03:48
(UTC-03:00)

N. Korean satellite - Visible Passes

Search period start: 27 November 2022 00:00
Search period end: 07 December 2022 00:00
Orbit: 422 x 454 km, 97.3° (Epoch: 26 November)

Date Brightness Start Highest point End Pass type
(mag) Time Alt. Az. Time Alt. Az. Time Alt. Az.
28 Nov 6.9 04:42:09 10° NNE 04:45:28 66° ESE 04:48:47 10° S visible
29 Nov 9.6 04:04:58 10° ENE 04:06:59 15° ESE 04:09:00 10° SE visible
01 Dec 8.9 04:19:09 10° NE 04:21:57 25° ESE 04:24:44 10° SSE visible
03 Dec 7.7 04:33:37 10° NNE 04:36:48 44° ESE 04:39:58 10° S visible
04 Dec 10.0 03:57:15 10° E 03:58:10 11° ESE 03:59:06 10° ESE visible
06 Dec 9.5 04:10:27 10° ENE 04:12:46 18° ESE 04:15:06 10° SSE visible
